Location: Aldenham
(51.6667°N, 0.3500°W)
Time: 17:19:40
(UTC+00:00)

Cosmos 2263 Rocket - Pass Details

Date: 18 November 2025
Orbit: 822 x 847 km, 71.0° (Epoch: 09 December)

Event Time Altitude Azimuth Distance (km) Brightness Sun altitude
Rises 17:55:06 0° 302° (WNW) 3,374 6.1 -16.4°
Reaches altitude 10° 18:00:06 10° 341° (NNW) 2,449 4.7 -17.2°
Maximum altitude 18:01:14 11° 353° (N) 2,411 4.5 -17.3°
Drops below altitude 10° 18:02:22 10° 5° (N) 2,453 4.5 -17.5°
Enters shadow 18:04:14 - 22° (NNE) 2,681 4.5 -17.8°
